Location: Fenwick Estates
(38.4523°N, 75.0505°W)
Time: 00:26:52
(UTC+00:00)

Daily predictions for brighter satellites

Satellite Brightness Start Highest point End
(mag) Time Altitude Azimuth Time Altitude Azimuth Time Altitude Azimuth
SJ-6B 2.7 00:38:00 10° SSE 00:41:48 70° ENE 00:45:32 10° N
H-2A R/B 2.6 00:37:27 10° SSE 00:41:49 75° ENE 00:46:05 10° N
SJ 16-02 3.3 00:40:44 10° ESE 00:42:12 12° E 00:43:41 10° ENE
Meteor 1-10 Rocket 4.4 00:37:18 10° S 00:42:38 52° E 00:48:04 10° NNE
Cosmos 1315 Rocket 3.2 00:39:18 10° N 00:43:14 47° ENE 00:47:06 10° SSE
NOSS 3-2 (C) 4.3 00:35:40 10° NNW 00:43:29 78° ENE 00:52:17 10° SE
Cosmos 1633 Rocket 3.5 00:40:13 10° N 00:44:23 42° E 00:48:30 10° SSE
Meteor 1-14 Rocket 4.4 00:42:23 10° N 00:48:18 90° W 00:54:03 10° S
CENTAUR R/B 3.6 00:40:12 10° NW 00:48:39 71° WSW 00:57:40 10° SSE
Okean O Rocket 4.3 00:46:51 10° SW 00:49:56 19° W 00:53:02 10° NW
Cosmos 1666 4.1 00:47:02 10° NNW 00:50:36 39° W 00:54:07 10° SSW
Sich 1 3.6 00:46:59 10° NNW 00:51:17 59° W 00:55:30 10° S
Meteor 1-27 Rocket 4.3 00:46:36 10° SSE 00:51:52 39° E 00:57:16 10° NNE
Cosmos 1743 4.4 00:49:51 10° NNE 00:52:29 18° ENE 00:55:07 10° ESE
Cosmos 2344 3.7 00:46:09 10° S 00:53:41 51° ESE 01:00:46 10° NE
Cosmos 1470 Rocket 4.4 00:52:02 10° NNE 00:55:55 32° ENE 00:59:48 10° SE
Tsikada Rocket 4.3 00:49:54 10° N 00:56:11 75° W 01:02:21 10° S
Cosmos 44 3.9 00:52:53 10° NW 00:57:01 46° WSW 01:01:11 10° S
Cosmos 2208 Rocket 4.1 00:52:18 10° NNW 00:57:44 75° ENE 01:03:05 10° SSE
OAO 3 Rocket 3.4 00:54:03 10° W 00:58:52 57° S 01:03:43 10° ESE
SL-12 R/B (Aux Motor) 4.3 00:55:27 10° SW 00:59:16 44° SSE 01:01:15 10° ENE
Cosmos 2219 3.5 00:54:16 10° NNW 00:59:45 52° ENE 01:05:03 11° SE
USA 238 DEB 4.1 00:56:10 10° NW 01:03:36 83° WSW 01:11:21 10° SSE
USA 238 4.0 00:56:17 10° NW 01:03:43 83° WSW 01:11:28 10° SSE
Ariane Rocket 3.9 01:00:37 10° SE 01:04:58 32° ENE 01:09:27 10° N
Resurs 01 Rocket 2.3 01:01:51 10° SE 01:05:50 38° ENE 01:09:55 10° N
Cosmos 1515 Rocket 3.9 01:02:16 10° SSE 01:06:23 44° E 01:10:33 10° NNE
Cosmos 2263 Rocket 4.0 01:05:02 10° NNE 01:08:30 16° NE 01:11:56 10° E
Meteor 1-11 Rocket 4.0 01:04:05 10° N 01:09:58 58° ENE 01:15:46 10° SSE
IGS 5A 3.6 01:09:00 10° S 01:13:08 74° WSW 01:17:18 10° NNW
PSLV R/B 3.8 01:10:04 10° NNE 01:14:06 73° ESE 01:18:07 10° S
Landsat 7 3.8 01:09:55 10° SSE 01:14:38 79° ENE 01:19:21 10° N
Cosmos 1544 4.5 01:12:34 10° NNW 01:15:50 36° W 01:19:04 10° SSW
ISS -0.9 01:14:55 10° N 01:16:08 11° NNE 01:17:21 10° NE
Okean-O 4.1 01:13:37 10° SSW 01:17:41 36° W 01:21:46 10° NNW
Aureole 1 Rocket 2.2 01:17:56 10° SSW 01:21:20 85° WNW 01:24:20 10° NNE
IRAS Rocket 4.3 01:15:45 10° NNE 01:21:21 64° ESE 01:26:55 10° S
Cosmos 2227 Rocket 2.3 01:21:47 10° NNW 01:27:29 82° WSW 01:32:27 14° SSE
Okean 1 4.2 01:26:46 20° SE 01:28:46 30° E 01:32:19 10° NNE
Cosmos 1536 2.8 01:26:19 10° N 01:30:20 65° E 01:33:11 18° SSE
Cosmos 1980 Rocket 2.1 01:26:31 10° SSW 01:32:06 72° ESE 01:37:45 10° NNE
RESURS DK-1 2.8 01:29:12 10° S 01:33:02 39° ESE 01:36:54 10° NE
ASTRO E2 4.1 01:32:46 10° WSW 01:35:51 22° SSW 01:36:58 20° SSE
SL-4 R/B 2.2 01:31:22 10° NW 01:35:56 72° NE 01:38:30 23° ESE
ARGOS Delta rocket 4.2 01:32:12 10° N 01:37:43 89° W 01:43:04 10° SSW
Cosmos 1184 Rocket 2.5 01:35:23 14° S 01:37:54 88° W 01:40:56 10° N
Cosmos 1354 Rocket 4.0 01:33:14 10° S 01:38:26 67° ESE 01:43:42 10° NNE
H-2A R/B 3.3 01:35:55 10° N 01:39:47 41° WNW 01:43:39 10° SW
SPOT 3 Rocket 4.0 01:38:06 21° SE 01:41:07 44° ENE 01:45:59 10° N
Cosmos 2322 Rocket 3.9 01:41:30 14° E 01:41:30 14° E 01:43:52 10° ENE
Cosmos 2369 3.8 01:36:40 10° SSW 01:42:19 81° WNW 01:47:59 10° NNE
IRS-1A Rocket 4.3 01:38:35 14° SSE 01:43:27 86° WSW 01:49:15 10° NNW
Cosmos 1464 Rocket 4.0 01:39:33 10° S 01:45:46 88° W 01:51:58 10° N
Cosmos 1697 Rocket 4.2 01:45:44 10° SW 01:51:00 39° WNW 01:56:18 10° N
Meteor 1-19 Rocket 4.1 01:46:54 16° S 01:51:08 61° E 01:56:28 10° NNE
Cosmos 389 Rocket 2.6 01:51:43 10° NNW 01:55:13 73° W 01:56:49 30° S
CZ-4B R/B 3.2 01:54:01 10° N 01:56:50 29° WNW 01:59:34 10° SW
MetOp-B 4.1 01:56:39 24° SSE 02:00:00 86° ENE 02:05:23 10° NNW
Cosmos 1975 4.2 01:56:53 10° NNE 02:00:11 23° ENE 02:00:36 23° E
ATLAS 2AS CENTAUR R/B 3.0 01:54:26 10° SSW 02:02:17 90° SE 02:09:58 10° NNE
Cosmos 1092 Rocket 4.4 01:57:37 10° N 02:03:28 43° ENE 02:06:04 29° SE
Cosmos 2297 Rocket 4.0 01:59:23 10° NW 02:03:55 25° WSW 02:08:26 10° SSW
Nadezhda 4 Rocket 3.9 01:57:52 10° N 02:04:07 80° E 02:07:53 25° SSE
GENESIS II 4.3 02:04:45 46° SE 02:05:04 47° ESE 02:08:49 10° NE
Meteor 2-14 Rocket 4.4 01:59:27 10° N 02:05:31 69° E 02:08:48 29° SSE
Cosmos 1634 Rocket 4.4 02:03:53 28° SE 02:06:30 43° E 02:12:17 10° NNE
Helios 1A Rocket 3.1 02:07:25 41° ESE 02:08:23 52° ENE 02:12:16 10° N
EXPRESS MD2 3.0 02:05:03 10° NW 02:10:13 78° NNE 02:10:54 54° ESE
Cosmos 1933 Rocket 4.1 02:07:43 10° NNW 02:12:06 56° W 02:14:37 24° SSW
ERS-1 Rocket 3.4 02:12:28 34° ESE 02:14:07 47° ENE 02:18:56 10° N
Meteor 2-9 Rocket 4.1 02:09:24 10° N 02:15:09 79° E 02:17:42 34° SSE
Cosmos 1733 Rocket 4.4 02:15:04 10° NNE 02:18:44 25° ENE 02:18:59 24° E
SJ 16-02 2.0 02:15:56 10° SSW 02:20:12 53° WNW 02:24:30 10° N
SL-16 R/B 2.5 02:18:47 37° SE 02:20:13 45° ESE 02:25:36 10° NE
CZ-2C R/B 3.8 02:16:29 10° NNE 02:21:13 60° E 02:22:29 44° SSE
NOSS 2-1 (E) 3.8 02:29:30 37° NE 02:29:30 37° NE 02:31:32 10° NE
Cosmos 2026 Rocket 4.1 02:22:23 10° N 02:28:30 60° E 02:30:41 39° SE
Cosmos 1862 Rocket 4.4 02:28:51 34° E 02:28:51 34° E 02:32:39 10° NNE
Timation 2 Rocket 4.2 02:22:11 10° NNW 02:28:49 75° WSW 02:32:04 33° S
ATLAS 3B R/B 3.8 02:24:13 10° NNW 02:31:05 39° NE 02:35:07 23° E
BREEZE M DEB (TANK) 4.3 02:29:48 10° NW 02:34:29 71° NE 02:47:28 19° ESE
Cosmos 1346 Rocket 2.8 02:36:33 66° E 02:36:33 66° E 02:40:25 10° NNE
Meteor 1-18 Rocket 4.3 02:34:06 28° SSW 02:37:17 80° W 02:42:56 10° N
Meteor 2-8 Rocket 4.3 02:37:05 40° SSE 02:39:21 72° E 02:45:25 10° NNE
OAO 3 Rocket 4.1 02:37:34 10° W 02:41:32 34° SSW 02:41:32 34° SSW
Gblst 52 Del rocket 4.4 02:35:13 10° SW 02:42:12 74° SE 02:48:17 10° NE
Resurs 01 Rocket 4.0 02:39:31 10° SW 02:42:27 17° W 02:45:22 10° NW
SPOT 5 3.1 02:43:22 46° S 02:44:56 76° WSW 02:50:08 10° NNW
Cosmos 2360 Rocket 3.1 02:45:49 30° E 02:45:49 30° E 02:49:59 10° NE
Terra 1.7 02:44:35 62° SE 02:45:16 74° ENE 02:50:01 10° N
Cosmos 2292 Rocket 4.0 02:45:44 10° NNW 02:47:45 39° NNW 02:47:45 39° NNW
Cosmos 1627 Rocket 4.4 02:43:50 10° N 02:50:06 89° W 02:52:13 45° S
Cosmos 1378 4.1 02:52:06 39° W 02:52:31 41° W 02:56:00 10° N
Cosmos 2263 Rocket 2.2 02:47:26 10° NNW 02:53:00 73° WSW 02:54:16 53° S
ISS -2.4 02:50:27 10° NW 02:53:04 36° N 02:53:04 36° N
Meteor 2-15 4.3 02:52:59 45° S 02:55:01 88° E 03:01:07 10° N
Cosmos 990 Rocket 4.0 02:57:52 58° ESE 02:57:52 58° ESE 03:02:59 10° NNE
Cosmos 2279 Rocket 3.9 03:07:07 54° S 03:08:40 86° E 03:14:54 10° N
Cosmos 1066 Rocket 4.1 03:10:46 65° SE 03:11:19 70° E 03:16:59 10° NNE
Cosmos 1898 Rocket 3.9 03:12:30 48° E 03:12:30 48° E 03:17:02 10° NNE
SL-4 R/B 4.4 03:12:13 10° W 03:13:57 15° WSW 03:13:57 15° WSW
SL-24 R/B - RUBIN 2 3.7 03:14:05 10° NNW 03:18:06 71° WNW 03:18:06 71° WNW
ARIANE 5 R/B 3.2 03:23:46 51° W 03:23:46 51° W 03:27:58 10° NNW
Cosmos 2322 Rocket 2.3 03:23:14 53° SW 03:24:32 72° WNW 03:30:09 10° NNE
USA 215 3.1 03:18:14 10° NE 03:24:45 64° SE 03:25:34 59° SSE
ATLAS CENTAUR R/B 3.7 03:21:20 10° N 03:24:50 20° NE 03:25:48 18° ENE
BREEZE-M DEB (TANK) 3.2 03:23:58 10° NW 03:26:21 49° NNE 03:26:21 49° NNE
Cosmos 2333 Rocket 3.0 03:31:12 37° ENE 03:31:12 37° ENE 03:35:19 10° NE
Cosmos 1844 Rocket 3.1 03:27:10 10° NNW 03:32:35 48° ENE 03:32:53 47° ENE
Cosmos 2180 Rocket 4.5 03:35:28 62° SW 03:36:28 76° W 03:42:38 10° N
Cosmos 44 Rocket 4.1 03:32:34 10° NW 03:36:16 41° W 03:36:16 41° W
Meteor 1-4 Rocket 4.4 03:33:45 10° NNW 03:35:33 29° NNW 03:35:33 29° NNW
Cosmos 1703 Rocket 4.4 03:39:39 45° NNE 03:39:39 45° NNE 03:42:49 10° NNE
Meteor 1-23 Rocket 4.4 03:40:45 59° E 03:40:45 59° E 03:46:14 10° NNE
Cosmos 2219 Rocket 3.0 03:49:49 38° ENE 03:49:49 38° ENE 03:53:45 10° NE
Cosmos 1844 3.8 03:51:16 10° NNW 03:57:04 65° ENE 03:57:04 65° ENE
Cosmos 1726 4.2 04:00:35 10° N 04:02:17 26° N 04:02:17 26° N
SL-16 R/B 4.1 04:00:33 13° WSW 04:04:30 25° WNW 04:09:10 10° N
ALOS 2 3.8 04:14:10 38° NNE 04:14:10 38° NNE 04:17:10 10° N
Cosmos 2237 Rocket 4.2 04:20:21 17° ENE 04:20:21 17° ENE 04:22:34 10° ENE
Cosmos 1655 Rocket 4.1 04:12:39 10° NNW 04:18:48 63° W 04:18:59 63° WSW
ATLAS 3B R/B 3.2 04:14:52 10° NW 04:21:59 49° WSW 04:22:21 48° WSW
COSMOS 2428 3.2 04:23:47 51° ENE 04:23:47 51° ENE 04:28:17 10° NNE
Cosmos 1937 Rocket 4.2 04:23:08 48° WNW 04:23:08 48° WNW 04:28:09 10° N
Terra 4.4 04:23:27 10° W 04:23:29 10° W 04:23:45 10° W
CZ-4C R/B 3.8 04:18:43 10° NNW 04:25:46 45° NE 04:29:39 29° ESE
Cosmos 2360 Rocket 3.5 04:27:32 30° W 04:28:57 34° WNW 04:34:04 10° N
NOSS 3-1 (C) 4.3 04:25:50 10° NNW 04:33:31 68° NE 04:36:05 48° ESE
Cosmos 1867 4.0 04:35:35 59° NE 04:35:35 59° NE 04:39:59 10° NNE
Meteor 1-21 4.4 04:41:33 73° NNE 04:41:33 73° NNE 04:46:49 10° N
Cosmos 2278 Rocket 3.5 04:48:14 10° N 04:53:12 30° ENE 04:54:16 28° ENE
Cosmos 1818 4.5 04:50:52 10° NW 04:54:36 40° WNW 04:54:36 40° WNW
Lacrosse 5 4.0 05:04:31 16° ENE 05:04:31 16° ENE 05:05:53 10° ENE
ATLAS CENTAUR R/B 3.3 04:59:20 10° NW 05:01:48 29° NW 05:01:48 29° NW
SL-16 R/B 4.3 05:07:55 15° E 05:07:55 15° E 05:10:16 10° ENE
USA 215 4.4 05:01:31 10° NE 05:07:30 40° NNW 05:12:51 13° W
Cosmos 1417 Rocket 4.4 05:10:23 80° ENE 05:10:23 80° ENE 05:16:25 10° N
Cosmos 1980 4.2 05:11:35 51° ENE 05:11:35 51° ENE 05:16:09 10° NNE
ADEOS Rocket 3.1 05:13:15 60° WNW 05:13:15 60° WNW 05:18:25 10° NNW
Cosmos 2333 Rocket 3.7 05:13:10 24° WNW 05:14:24 27° WNW 05:19:09 10° N
ASTEX 1 4.0 05:12:44 10° N 05:16:31 53° N 05:16:31 53° N
Cosmos 2219 Rocket 3.8 05:31:29 23° WNW 05:32:34 25° WNW 05:37:07 10° N
Cosmos 1709 Rocket 4.3 05:26:57 10° N 05:32:55 52° E 05:33:27 51° E
Cosmos 2150 Rocket 4.4 05:33:55 60° N 05:33:55 60° N 05:38:14 10° NNE
Cosmos 2315 Rocket 4.3 05:33:04 56° ESE 05:33:23 57° E 05:39:37 10° NNE
Cosmos 1386 Rocket 4.3 05:31:51 10° N 05:37:41 80° WNW 05:37:41 80° WNW
Cosmos 494 Rocket 4.5 05:32:51 10° NNW 05:36:47 54° NNW 05:36:47 54° NNW
S3M 4.0 05:38:12 74° W 05:38:19 75° W 05:44:42 10° N
USA 267 3.2 05:38:54 58° SE 05:40:21 85° NE 05:46:55 10° NW
Cosmos 1125 Rocket 4.0 05:44:18 52° NW 05:44:18 52° NW 05:48:48 10° N
CZ-2D R/B 3.7 05:40:26 10° NE 05:44:44 24° E 05:44:50 24° E
Meteor 1-16 Rocket 4.4 05:39:47 10° NNW 05:45:16 68° WNW 05:45:16 68° WNW
Cosmos 1975 Rocket 4.3 05:48:04 36° NE 05:48:04 36° NE 05:51:15 10° NNE
USA 229 DEB 3.9 05:43:11 10° NNW 05:50:43 89° ENE 05:52:46 55° SSE
USA 229 3.9 05:43:17 10° NNW 05:50:49 88° ENE 05:52:53 54° SE
Cosmos 839 Rocket 4.3 05:48:14 10° NNW 05:54:48 79° ENE 05:57:08 48° SE
NOSS 0 Rocket 4.5 05:56:55 45° W 05:57:41 47° WNW 06:03:42 10° NNE
Meteor 2-5 Rocket 4.2 05:57:39 50° ESE 05:57:55 51° E 06:03:24 10° NNE
NOSS 2-2 (E) 4.5 05:52:56 10° NW 05:58:40 75° WSW 05:58:58 74° SW
Lacrosse 5 rocket 3.4 06:01:10 21° ENE 06:01:10 21° ENE 06:02:41 10° NE
Cosmos 2237 Rocket 2.5 06:02:09 55° WNW 06:02:14 55° WNW 06:07:51 10° NNE
Cosmos 332 Rocket 4.2 06:04:18 59° N 06:04:18 59° N 06:08:17 10° NNE
Cosmos 1953 4.3 06:05:24 10° NNW 06:07:09 23° NW 06:07:09 23° NW
Resurs 1-4 Rocket 2.8 06:05:02 10° NNE 06:10:03 44° E 06:10:14 43° ESE
GP-B 3.7 06:08:20 10° N 06:11:45 53° N 06:11:45 53° N
CZ-4C R/B 3.4 06:07:13 10° NW 06:14:33 47° WSW 06:14:45 47° WSW
NOSS 3-1 (A) 4.3 06:09:43 10° NW 06:17:23 54° WSW 06:18:25 51° SW
Cosmos 1943 Rocket 3.2 06:15:09 10° N 06:20:32 42° ENE 06:23:41 22° ESE
IDEFIX/ARIANE 42P 4.2 06:17:56 10° NE 06:22:07 24° E 06:23:29 21° ESE
ADEOS II 3.4 06:18:52 10° NE 06:23:25 29° E 06:24:27 27° ESE
Thor Agena Rocket 3.6 06:20:43 10° N 06:25:59 68° WNW 06:26:03 68° WNW
Cosmos 2278 Rocket 3.2 06:32:09 10° NW 06:36:05 32° WNW 06:36:05 32° WNW
Lacrosse 5 2.4 06:43:42 46° WNW 06:44:26 50° NW 06:49:24 10° NNE
NPP 3.6 06:39:49 10° NNE 06:45:14 77° ESE 06:46:05 62° SSE
ATLAS 5 CENTAUR R/B 4.0 06:41:14 10° NW 06:45:39 24° WNW 06:45:39 24° WNW
Cosmos 2369 Rocket 4.0 06:45:32 10° N 06:50:19 28° ENE 06:55:05 10° ESE
SL-16 R/B 2.2 06:49:47 59° WSW 06:50:37 67° WNW 06:56:18 10° NNE
Cosmos 1455 2.7 06:49:40 10° N 06:52:50 56° NE 06:52:50 56° NE
SME Rocket 3.9 06:58:11 39° WNW 06:58:11 39° WNW 07:01:45 10° NNW
AQUA 3.7 06:56:08 10° NNE 07:00:55 83° ESE 07:01:34 66° S
Cosmos 1269 Rocket 3.9 06:56:10 10° NNW 07:01:23 62° WSW 07:01:45 61° SW
Cosmos 1271 Rocket 3.8 06:58:34 10° N 07:02:14 41° ENE 07:03:04 36° ESE
SL-16 R/B 2.4 07:01:09 37° SSE 07:03:52 88° WSW 07:10:09 10° NNW
Cosmos 2228 4.4 07:02:49 10° N 07:06:51 36° ENE 07:09:09 21° SE
Cosmos 2074 Rocket 3.9 07:04:39 10° NNW 07:10:56 71° W 07:13:08 42° SSW
Meteor 1-24 Rocket 4.4 07:14:10 35° W 07:15:05 38° WNW 07:20:10 10° N
SAR-Lupe-2 3.8 07:12:10 10° N 07:15:21 59° NW 07:15:21 59° NW
Cosmos 1536 Rocket 3.5 07:16:40 63° WSW 07:17:03 66° W 07:21:25 10° N
COSMOS 2455 2.9 07:18:09 42° SW 07:20:09 68° WNW 07:26:10 10° NNE
Cosmos 292 Rocket 3.8 07:20:54 53° SW 07:21:50 66° WNW 07:26:37 10° NNE
DNEPR-1 R/B 4.0 07:21:45 40° SSE 07:22:35 47° ESE 07:26:50 10° NE
CZ-2D R/B 2.8 07:19:57 10° N 07:24:52 38° WNW 07:26:09 33° W
CRYOSAT 2 4.4 07:25:18 49° SW 07:26:19 61° W 07:31:10 10° NNW
Cosmos 2184 Rocket 4.1 07:21:09 10° NNW 07:27:12 54° W 07:29:21 37° SW
Cosmos 1610 Rocket 4.4 07:23:47 10° N 07:29:56 81° W 07:33:27 27° S
GPS 2-04 Rocket1 4.0 07:31:42 23° SE 07:31:42 23° SE 07:33:39 10° E
MSX 3.8 07:31:29 10° NNE 07:37:18 90° ESE 07:40:20 30° SSW
Lacrosse 5 rocket 3.1 07:36:40 18° WNW 07:38:10 22° NW 07:41:21 10° NNE
Helios 1B rocket 3.9 07:34:46 10° NE 07:38:24 31° E 07:41:03 16° SSE
YAOGAN 11 4.5 07:40:01 41° WSW 07:40:35 43° W 07:44:54 10° NNW
Cosmos 1606 Rocket 3.9 07:39:25 10° N 07:43:47 63° E 07:47:12 16° SSE
OAO 2 Rocket 3.8 07:42:53 36° SSW 07:44:01 42° SSE 07:48:39 10° E
Cosmos 1943 3.2 07:41:37 31° SSW 07:44:26 87° ESE 07:50:09 10° NNE
Cosmos 2181 Rocket 4.5 07:40:26 14° SSE 07:45:47 58° E 07:51:49 10° NNE
Cosmos 1703 3.7 07:45:42 41° WSW 07:46:16 44° W 07:50:02 10° N
UNK 4.4 07:48:50 32° WSW 07:49:22 33° W 07:53:31 10° NNW
Resurs 1-4 Rocket 3.6 07:45:33 10° NNW 07:49:33 22° WNW 07:51:19 19° W
EO 1 Del DPAF 3.8 07:48:59 10° N 07:52:11 34° WNW 07:52:35 33° W
Helios 1A 3.2 07:51:32 36° SSW 07:52:51 51° W 07:56:58 10° NNW
Meteor 2-1 Rocket 4.3 07:47:57 10° N 07:53:43 79° E 07:59:18 10° SSE
NOSS 3-3 (A) 3.9 07:52:29 29° SW 07:55:23 69° NW 08:01:40 10° NNE
NOSS 3-3 (C) 3.9 07:52:35 29° SW 07:55:29 70° NW 08:01:46 10° NNE
ARIANE 5 R/B 4.3 07:51:39 10° NE 07:55:52 26° E 08:00:02 10° SSE
Lacrosse 4 Rocket 3.3 07:55:25 11° SSE 07:58:44 24° ESE 08:02:11 10° NE
CBERS-1 4.2 07:54:21 10° NNE 07:59:28 73° ESE 08:03:20 18° S
IDEFIX/ARIANE 42P 3.3 07:56:54 10° N 08:01:47 39° WNW 08:04:17 24° WSW
Cosmos 614 Rocket 4.5 07:57:21 10° NW 08:02:09 39° WSW 08:04:35 24° SSW
Cosmos 2056 Rocket 3.8 07:59:06 18° S 08:02:53 62° ESE 08:08:04 10° NNE
ADEOS II 3.1 07:58:26 10° N 08:03:02 32° WNW 08:05:22 22° WSW
BREEZE-M DEB (TANK) 3.3 08:02:27 31° SSW 08:03:39 53° SE 08:10:09 10° ENE
Cosmos 1408 3.5 08:01:10 15° SSE 08:03:58 45° E 08:07:26 10° NNE
Cosmos 1943 Rocket 3.2 07:59:26 10° NW 08:03:59 25° WSW 08:05:07 23° WSW
Meteor 1-28 Rocket 4.2 08:06:01 26° WSW 08:06:12 26° W 08:09:24 10° NW
Cosmos 1892 3.8 08:02:58 12° SSE 08:06:18 42° E 08:09:53 10° NNE
FENGYUN 3A 4.3 08:01:06 10° NNE 08:06:22 53° E 08:11:37 10° S
SL-19 R/B 4.4 08:03:35 10° NNE 08:09:40 85° WNW 08:14:16 17° SSW
MOS 1 Rocket 4.4 08:10:22 20° W 08:10:41 21° W 08:13:55 10° NW
ALOS 3.1 08:07:29 10° NNE 08:11:59 47° E 08:16:27 10° S
Cosmos 2263 4.2 08:06:39 10° NNW 08:12:22 85° WSW 08:18:05 10° SSE
IRS-1D 3.9 08:07:47 10° N 08:12:58 53° WNW 08:16:21 21° SW
Cosmos 2251 Rocket 3.7 08:10:42 10° NNW 08:15:47 50° WSW 08:20:53 10° S
Cosmos 1892 Rocket 3.6 08:13:51 21° SSW 08:16:47 66° W 08:21:15 10° N
Cosmos 1726 Rocket 3.6 08:18:30 10° NNW 08:22:51 60° W 08:27:04 10° S
Cosmos 2366 rocket 3.9 08:21:43 10° N 08:27:53 80° W 08:34:05 10° S
Lacrosse 5 4.3 08:25:47 10° NW 08:28:30 14° NNW 08:31:14 10° N
CZ-2C R/B 2.7 08:25:03 10° NNE 08:30:08 73° ESE 08:35:03 10° S
Cosmos 2341 Rocket 4.3 08:26:00 10° NNW 08:32:08 50° W 08:38:14 10° SSW
PAYLOAD A 4.0 08:27:27 10° NNE 08:32:13 75° ESE 08:37:05 10° S
SL-8 Rocket 4.1 08:28:08 10° NNW 08:34:20 59° W 08:40:29 10° S
Cosmos 2369 Rocket 2.7 08:29:15 10° NW 08:34:23 38° WSW 08:39:30 10° S
SL-16 R/B 4.5 08:35:05 10° NW 08:35:51 10° NW 08:36:38 10° NW
IRS-P3 4.3 08:30:44 10° NNE 08:36:05 75° ESE 08:41:24 10° S
Cosmos 1656 Rocket 3.8 08:30:58 10° NW 08:36:07 46° WSW 08:41:17 10° S
Meteor 1-29 3.5 08:35:12 10° NNE 08:38:24 54° E 08:41:36 10° S
BREEZE-M DEB (TANK) 3.8 08:43:23 10° W 08:47:19 28° NW 08:49:27 10° NNE
In-Cosmos 22 Rocket 4.3 08:42:07 10° S 08:47:54 84° W 08:53:46 10° N
SL-16 R/B 4.3 08:46:14 10° WSW 08:48:12 12° W 08:50:14 10° WNW
Cosmos 1420 Rocket 4.1 08:44:05 11° SSW 08:49:05 62° WNW 08:54:15 10° NNE
SL-08 R/B 4.0 08:49:21 10° SSE 08:53:49 56° ENE 08:58:23 10° N
DELTA 2 DEB (DPAF) 4.1 08:51:52 10° S 08:56:16 81° WSW 09:00:43 10° NNW
Meteor 1-27 4.4 08:51:02 10° N 08:56:49 84° E 09:02:28 10° S
Cosmos 407 Rocket 4.1 08:53:42 10° NW 08:58:30 36° W 09:03:15 10° SSW
Cosmos 1869 3.4 08:55:40 10° N 08:59:35 78° E 09:03:26 10° S
Cosmos 1626 Rocket 3.6 08:56:36 10° SSW 09:00:58 66° W 09:05:20 10° N
Cosmos 2058 Rocket 3.6 08:57:03 10° NNW 09:01:06 38° W 09:05:07 10° SSW
CZ-4C R/B 4.3 08:58:37 10° SSE 09:02:07 49° ENE 09:05:48 10° N
Genesis I 3.6 08:59:06 10° NW 09:02:53 40° WSW 09:06:34 10° S
MOS 1-B Rocket 4.3 08:58:22 10° SSW 09:03:34 38° W 09:08:52 10° NNW
Cosmos 1140 Rocket 4.4 09:01:23 10° NW 09:05:52 29° W 09:10:18 10° SSW
SeaSat 1 2.5 09:01:22 10° NNE 09:06:19 86° ESE 09:11:15 10° SSW
Cosmos 1452 Rocket 3.7 09:02:23 10° S 09:07:39 77° ESE 09:12:56 10° NNE
GPS 2-04 Rocket1 2.6 09:05:55 10° WSW 09:09:16 53° S 09:12:46 10° E
CZ-3 R/B 3.9 08:50:29 10° W 09:28:59 57° SSW 09:38:26 10° ESE
